TimeCST,TemperatureF,Dew PointF,Humidity,Sea Level PressureIn,VisibilityMPH,Wind Direction,Wind SpeedMPH,Gust SpeedMPH,PrecipitationIn,Events,Conditions,WindDirDegrees,DateUTC
12:54 AM,36.0,28.9,76,30.18,10.0,SW,9.2,-,N/A,,Overcast,230,2013-01-06 06:54:00
1:54 AM,37.0,30.9,79,30.17,10.0,SSW,9.2,-,N/A,,Overcast,200,2013-01-06 07:54:00
2:54 AM,36.0,30.9,82,30.16,10.0,SW,9.2,-,N/A,,Overcast,220,2013-01-06 08:54:00
3:54 AM,37.0,30.9,79,30.14,10.0,SSW,4.6,-,N/A,,Overcast,200,2013-01-06 09:54:00
4:54 AM,36.0,30.9,82,30.13,10.0,SSW,6.9,-,N/A,,Clear,200,2013-01-06 10:54:00
5:54 AM,36.0,30.9,82,30.13,9.0,SSW,11.5,-,N/A,,Overcast,210,2013-01-06 11:54:00
6:54 AM,34.0,30.9,89,30.15,8.0,SW,10.4,-,N/A,,Clear,220,2013-01-06 12:54:00
7:30 AM,33.8,30.2,87,30.15,6.0,SW,9.2,-,N/A,,Mostly Cloudy,220,2013-01-06 13:30:00
7:54 AM,36.0,30.9,82,30.17,7.0,SW,11.5,-,N/A,,Overcast,220,2013-01-06 13:54:00
8:23 AM,35.6,32.0,87,30.17,8.0,WSW,10.4,-,N/A,,Overcast,250,2013-01-06 14:23:00
8:45 AM,35.6,32.0,87,30.17,9.0,WSW,11.5,-,N/A,,Overcast,240,2013-01-06 14:45:00
8:54 AM,36.0,30.9,82,30.18,9.0,WSW,8.1,-,N/A,,Overcast,240,2013-01-06 14:54:00
9:27 AM,37.4,30.2,75,30.18,10.0,West,8.1,-,N/A,,Partly Cloudy,260,2013-01-06 15:27:00
9:54 AM,37.9,30.0,73,30.19,10.0,West,8.1,-,N/A,,Partly Cloudy,260,2013-01-06 15:54:00
10:10 AM,37.4,28.4,70,30.19,10.0,West,16.1,-,N/A,,Mostly Cloudy,270,2013-01-06 16:10:00
10:19 AM,37.4,28.4,70,30.19,10.0,West,12.7,19.6,N/A,,Mostly Cloudy,270,2013-01-06 16:19:00
10:54 AM,37.0,26.1,65,30.20,10.0,WNW,13.8,23.0,N/A,,Overcast,300,2013-01-06 16:54:00
11:03 AM,35.6,24.8,65,30.19,10.0,NW,17.3,25.3,N/A,,Overcast,310,2013-01-06 17:03:00
11:41 AM,35.6,24.8,65,30.20,10.0,West,11.5,19.6,N/A,,Overcast,280,2013-01-06 17:41:00
11:54 AM,35.6,24.8,65,30.19,10.0,West,11.5,23.0,N/A,,Overcast,280,2013-01-06 17:54:00
12:15 PM,35.6,24.8,65,30.20,10.0,West,15.0,23.0,N/A,,Overcast,280,2013-01-06 18:15:00
12:54 PM,35.1,25.0,67,30.22,10.0,WNW,13.8,20.7,N/A,,Overcast,290,2013-01-06 18:54:00
1:54 PM,34.0,25.0,70,30.25,10.0,WNW,12.7,-,N/A,,Overcast,290,2013-01-06 19:54:00
2:38 PM,33.8,24.8,70,30.27,10.0,NW,8.1,-,N/A,,Overcast,320,2013-01-06 20:38:00
2:54 PM,33.8,24.8,70,30.28,10.0,NNW,11.5,-,N/A,,Overcast,340,2013-01-06 20:54:00
3:17 PM,33.8,24.8,70,30.30,10.0,NW,11.5,-,N/A,,Overcast,320,2013-01-06 21:17:00
3:51 PM,33.8,23.0,65,30.31,9.0,WNW,9.2,-,N/A,,Partly Cloudy,300,2013-01-06 21:51:00
3:54 PM,33.1,23.0,66,30.33,9.0,NW,11.5,-,N/A,,Partly Cloudy,310,2013-01-06 21:54:00
4:45 PM,32.0,21.2,64,30.34,7.0,NW,5.8,-,N/A,,Mostly Cloudy,310,2013-01-06 22:45:00
4:54 PM,32.0,21.9,66,30.35,7.0,NNW,4.6,-,N/A,,Mostly Cloudy,330,2013-01-06 22:54:00
5:54 PM,30.9,21.9,69,30.38,9.0,NNW,5.8,-,N/A,,Overcast,330,2013-01-06 23:54:00
6:25 PM,30.2,21.2,69,30.37,9.0,NW,4.6,-,N/A,,Scattered Clouds,320,2013-01-07 00:25:00
6:54 PM,30.0,21.0,69,30.39,9.0,NNW,3.5,-,N/A,,Scattered Clouds,330,2013-01-07 00:54:00
7:01 PM,30.2,21.2,69,30.38,9.0,NNW,3.5,-,N/A,,Mostly Cloudy,340,2013-01-07 01:01:00
7:18 PM,30.2,21.2,69,30.38,9.0,NW,3.5,-,N/A,,Scattered Clouds,320,2013-01-07 01:18:00
7:54 PM,28.9,21.0,72,30.41,9.0,Calm,Calm,-,N/A,,Clear,0,2013-01-07 01:54:00
8:54 PM,27.0,19.9,75,30.43,9.0,NNE,3.5,-,N/A,,Clear,20,2013-01-07 02:54:00
9:54 PM,27.0,21.0,78,30.42,7.0,Calm,Calm,-,N/A,,Clear,0,2013-01-07 03:54:00
10:54 PM,23.0,19.0,85,30.44,6.0,Calm,Calm,-,N/A,,Clear,0,2013-01-07 04:54:00
11:54 PM,24.1,19.0,81,30.43,6.0,Calm,Calm,-,N/A,,Haze,0,2013-01-07 05:54:00